Location: Newark
(47.5833°N, 8.1500°E)
Time: 07:59:03
(UTC+00:00)

Vanguard 1 - Pass Details

Date: 05 November 2020
Orbit: 650 x 3833 km, 34.2° (Epoch: 29 November)

Event Time Altitude Azimuth Distance (km) Brightness Sun altitude
Rises 09:39:56 0° 223° (SW) 6,255 14.5 23.3°
Reaches altitude 10° 09:43:49 10° 216° (SW) 5,611 14.4 23.6°
Maximum altitude 10:00:53 44° 152° (SSE) 4,488 15.0 24.6°
Drops below altitude 10° 10:21:51 10° 91° (E) 6,807 14.6 25.6°
Sets 10:27:09 0° 86° (E) 7,639 14.7 25.8°
